Waarnemingen

Advertentie
Mijn weer
Charleroi/Gosselies, België (6449): temperatuur & dauwpunt: 19.11.2020 18:00:00 - 25.11.2020 18:00:00 (CET)Charleroi/Gosselies, België (6449): windsnelheid & windstoten: 19.11.2020 18:00:00 - 25.11.2020 18:00:00 (CET)Charleroi/Gosselies, België (6449): windrichting: 19.11.2020 18:00:00 - 25.11.2020 18:00:00 (CET)Charleroi/Gosselies, België (6449): luchtdruk: 19.11.2020 18:00:00 - 25.11.2020 18:00:00 (CET)Charleroi/Gosselies, België (6449): zicht: 19.11.2020 18:00:00 - 25.11.2020 18:00:00 (CET)
Datum & Tijd tt [°C] td [°C] ff [km/u] ff [kn] fx [km/u] fx [kn] dd ppp [hPa] vv [km]
25.11.2020 18:00:00 - - - - - - - - -
25.11.2020 17:00:00 8,3 5,1 15 8 22 12 Z 1017,5 10
25.11.2020 16:00:00 9,2 5,1 13 7 - - Z 1017,0 10
25.11.2020 15:00:00 8,7 4,6 18 10 32 18 ZZW 1016,9 10
25.11.2020 14:00:00 8,8 4,3 22 12 32 18 Z 1017,0 10
25.11.2020 13:00:00 8,1 3,8 18 10 - - Z 1017,1 10
25.11.2020 12:00:00 7,7 3,6 22 12 36 19 Z 1017,3 10
25.11.2020 11:00:00 6,6 3,1 18 10 32 18 Z 1017,4 10
25.11.2020 10:00:00 6,0 2,7 18 10 - - Z 1017,2 10
25.11.2020 09:00:00 5,5 2,6 18 10 32 18 Z 1016,7 10
25.11.2020 08:00:00 5,2 2,3 16 9 29 16 Z 1016,4 10
25.11.2020 07:00:00 5,0 2,1 15 8 - - Z 1016,1 10
25.11.2020 06:00:00 4,8 2,1 11 6 18 10 Z 1016,1 10
25.11.2020 05:00:00 4,7 1,9 13 7 22 12 Z 1016,0 10
25.11.2020 04:00:00 3,4 1,8 15 8 - - ZZO 1016,2 10
25.11.2020 03:00:00 3,6 2,0 13 7 22 12 Z 1016,9 10
25.11.2020 02:00:00 3,5 2,1 18 10 29 16 ZZO 1017,4 10
25.11.2020 01:00:00 3,7 2,3 18 10 - - ZZO 1017,8 20
25.11.2020 00:00:00 4,2 2,5 16 9 29 16 ZZO 1018,2 10
24.11.2020 23:00:00 4,4 2,6 21 11 29 16 ZZO 1018,6 10
24.11.2020 22:00:00 4,6 2,9 21 11 - - ZZO 1019,0 10
24.11.2020 21:00:00 5,1 3,4 18 10 25 14 ZZO 1019,2 10
24.11.2020 20:00:00 5,3 3,6 16 9 22 12 ZZO 1019,3 10
24.11.2020 19:00:00 5,7 3,8 15 8 - - Z 1019,8 10
24.11.2020 18:00:00 6,4 3,5 15 8 22 12 ZZO 1019,9 10
24.11.2020 17:00:00 7,5 3,8 9 5 18 10 ZZO 1020,3 10
24.11.2020 16:00:00 8,2 3,8 13 7 - - Z 1021,0 10
24.11.2020 15:00:00 9,3 4,2 11 6 25 14 Z 1021,4 10
24.11.2020 14:00:00 9,5 4,9 15 8 22 12 Z 1021,9 10
24.11.2020 13:00:00 9,3 4,7 15 8 - - Z 1022,6 10
24.11.2020 12:00:00 9,2 5,6 15 8 22 12 Z 1023,5 10
24.11.2020 11:00:00 8,2 5,4 13 7 18 10 Z 1024,2 10
24.11.2020 10:00:00 7,3 5,5 13 7 - - Z 1024,6 10
24.11.2020 09:00:00 6,6 5,1 13 7 18 10 Z 1024,9 10
24.11.2020 08:00:00 6,5 5,1 11 6 22 12 ZZW 1025,0 10
24.11.2020 07:00:00 7,4 5,9 13 7 - - Z 1025,1 10
24.11.2020 06:00:00 7,9 6,7 15 8 22 12 Z 1025,5 10
24.11.2020 05:00:00 8,2 7,3 11 6 25 14 ZZW 1026,0 6
24.11.2020 04:00:00 8,2 7,4 15 8 - - ZZW 1026,3 6
24.11.2020 03:00:00 8,2 7,2 11 6 22 12 Z 1026,6 8
24.11.2020 02:00:00 8,1 7,1 16 9 29 16 ZZW 1027,1 9
24.11.2020 01:00:00 7,8 7,0 16 9 - - Z 1027,6 10
24.11.2020 00:00:00 8,0 7,1 16 9 25 14 Z 1027,8 10
23.11.2020 23:00:00 8,0 7,0 15 8 25 14 Z 1028,2 10
23.11.2020 22:00:00 8,2 7,3 16 9 - - ZZW 1028,6 10
23.11.2020 21:00:00 8,2 7,1 13 7 25 14 Z 1028,7 10
23.11.2020 20:00:00 8,3 7,3 18 10 25 14 ZZW 1028,9 10
23.11.2020 19:00:00 8,4 7,5 16 9 - - Z 1028,7 6
23.11.2020 18:00:00 8,8 7,1 8 4 11 6 Z 1028,6 10
23.11.2020 17:00:00 8,6 6,9 8 4 11 6 Z 1028,5 10
23.11.2020 16:00:00 9,0 6,6 9 5 - - Z 1028,3 10
23.11.2020 15:00:00 9,3 6,2 9 5 14 8 ZZW 1029,2 8
23.11.2020 14:00:00 9,3 6,3 2 1 11 6 - 1029,6 8
23.11.2020 13:00:00 9,2 6,8 4 2 - - - 1029,6 10
23.11.2020 12:00:00 8,8 6,7 8 4 11 6 ZZW 1030,0 10
23.11.2020 11:00:00 8,6 6,6 2 1 4 2 ZZO 1030,0 8
23.11.2020 10:00:00 7,5 6,6 4 2 - - - 1029,6 4,0
23.11.2020 09:00:00 7,3 6,6 5 3 7 4 WZW 1029,4 4,0
23.11.2020 08:00:00 7,6 6,9 5 3 11 6 W 1029,0 3,5
23.11.2020 07:00:00 7,7 7,0 5 3 - - W 1028,5 3,2
23.11.2020 06:00:00 7,8 7,1 8 4 14 8 WZW 1028,2 4,0
23.11.2020 05:00:00 7,8 7,2 11 6 14 8 WZW 1027,8 5
23.11.2020 04:00:00 7,9 7,2 9 5 - - WZW 1027,9 4,0
23.11.2020 03:00:00 8,0 7,4 8 4 11 6 WZW 1028,0 4,0
23.11.2020 02:00:00 7,8 7,3 8 4 14 8 ZW 1027,8 10
23.11.2020 01:00:00 7,8 6,8 11 6 - - WZW 1027,8 10
23.11.2020 00:00:00 7,9 7,6 4 2 18 10 - 1027,8 2,0
22.11.2020 23:00:00 7,8 7,2 15 8 22 12 ZW 1027,7 3,0
22.11.2020 22:00:00 7,8 7,2 11 6 - - ZW 1027,7 1,4
22.11.2020 21:00:00 7,8 7,1 13 7 22 12 ZW 1027,5 5
22.11.2020 20:00:00 7,7 7,0 13 7 25 14 ZZW 1027,4 4,0
22.11.2020 19:00:00 7,6 7,1 15 8 - - ZW 1027,4 3,2
22.11.2020 18:00:00 7,6 6,8 15 8 22 12 ZW 1027,3 4,5
22.11.2020 17:00:00 7,6 7,0 15 8 22 12 ZW 1027,1 2,0
22.11.2020 16:00:00 7,7 7,0 15 8 - - ZW 1027,1 4,5
22.11.2020 15:00:00 7,7 7,0 15 8 22 12 ZW 1027,0 4,5
22.11.2020 14:00:00 7,7 6,9 15 8 29 16 ZW 1027,4 4,5
22.11.2020 13:00:00 7,5 6,9 16 9 - - ZZW 1027,7 3,5
22.11.2020 12:00:00 7,3 6,7 16 9 29 16 ZZW 1028,3 2,0
22.11.2020 11:00:00 7,0 6,5 18 10 29 16 ZZW 1028,6 2,5
22.11.2020 10:00:00 6,9 6,4 16 9 - - ZZW 1028,3 2,5
22.11.2020 09:00:00 7,2 5,7 16 9 29 16 ZZW 1028,3 8
22.11.2020 08:00:00 7,2 5,8 18 10 29 16 ZZW 1027,9 10
22.11.2020 07:00:00 7,2 5,9 16 9 - - ZW 1028,2 10
22.11.2020 06:00:00 7,3 6,0 18 10 25 14 ZZW 1028,2 10
22.11.2020 05:00:00 7,0 5,8 21 11 32 18 ZZW 1028,0 5
22.11.2020 04:00:00 7,3 5,5 21 11 - - ZZW 1028,0 10
22.11.2020 03:00:00 7,1 5,5 18 10 32 18 ZZW 1028,4 7
22.11.2020 02:00:00 7,3 5,3 22 12 36 19 ZW 1028,3 10
22.11.2020 01:00:00 7,7 4,8 21 11 - - ZW 1028,5 10
22.11.2020 00:00:00 7,9 4,9 22 12 36 19 ZZW 1028,7 10
21.11.2020 23:00:00 8,1 5,0 24 13 36 19 ZW 1029,2 10
21.11.2020 22:00:00 8,0 5,1 22 12 - - ZZW 1029,5 10
21.11.2020 21:00:00 8,1 5,2 21 11 32 18 ZZW 1029,6 10
21.11.2020 20:00:00 8,1 5,2 21 11 36 19 ZZW 1030,0 10
21.11.2020 19:00:00 8,1 5,0 21 11 - - ZZW 1029,9 10
21.11.2020 18:00:00 8,2 5,0 21 11 32 18 ZZW 1030,0 10
21.11.2020 17:00:00 8,2 4,7 22 12 40 21 ZZW 1030,0 10
21.11.2020 16:00:00 8,4 4,4 24 13 - - ZW 1030,2 10
21.11.2020 15:00:00 8,7 4,3 22 12 36 19 ZW 1030,2 10
21.11.2020 14:00:00 8,8 4,2 18 10 36 19 ZZW 1030,5 10
21.11.2020 13:00:00 7,6 3,2 24 13 - - ZZW 1031,0 10
21.11.2020 12:00:00 7,0 2,8 26 14 40 21 ZZW 1031,6 10
21.11.2020 11:00:00 5,8 2,0 28 15 40 21 ZZW 1032,4 10
21.11.2020 10:00:00 5,3 1,9 24 13 - - ZZW 1032,7 10
21.11.2020 09:00:00 4,9 1,9 24 13 40 21 ZZW 1032,7 10
21.11.2020 08:00:00 4,8 1,9 24 13 40 21 ZZW 1032,5 10
21.11.2020 07:00:00 4,9 1,9 24 13 - - ZZW 1032,8 10
21.11.2020 06:00:00 4,8 2,0 21 11 32 18 ZZW 1033,0 10
21.11.2020 05:00:00 4,6 1,7 22 12 36 19 ZZW 1033,2 10
21.11.2020 04:00:00 4,4 1,5 26 14 - - ZZW 1033,1 10
21.11.2020 03:00:00 4,0 1,2 21 11 29 16 ZZW 1033,8 10
21.11.2020 02:00:00 3,9 0,9 21 11 32 18 ZZW 1034,2 10
21.11.2020 01:00:00 4,0 1,1 18 10 - - ZZW 1034,9 10
21.11.2020 00:00:00 3,8 0,7 18 10 25 14 ZZW 1035,3 10
20.11.2020 23:00:00 3,3 -0,3 11 6 18 10 Z 1035,5 10
20.11.2020 22:00:00 3,0 -0,6 11 6 - - Z 1035,8 10
20.11.2020 21:00:00 2,6 -0,5 11 6 14 8 Z 1036,2 10
20.11.2020 20:00:00 3,2 -0,6 9 5 14 8 ZZW 1036,1 10
20.11.2020 19:00:00 3,6 -0,7 8 4 - - Z 1036,0 10
20.11.2020 18:00:00 4,4 -0,7 8 4 11 6 ZZW 1036,1 10
20.11.2020 17:00:00 5,2 -0,7 8 4 11 6 ZW 1036,1 10
20.11.2020 16:00:00 5,5 -0,4 11 6 - - WZW 1035,8 10
20.11.2020 15:00:00 5,9 -0,2 9 5 22 12 ZW 1035,9 10
20.11.2020 14:00:00 6,7 -0,3 8 4 22 12 - 1036,3 10
20.11.2020 13:00:00 6,0 -0,8 11 6 - - ZW 1036,9 10
20.11.2020 12:00:00 6,0 1,5 8 4 14 8 WZW 1037,1 10
20.11.2020 11:00:00 4,8 2,2 9 5 14 8 WZW 1037,1 10
20.11.2020 10:00:00 3,6 1,7 13 7 - - WZW 1036,8 10
20.11.2020 09:00:00 2,4 1,3 9 5 14 8 ZZW 1036,2 7
20.11.2020 08:00:00 2,1 1,3 9 5 14 8 WZW 1035,7 4,5
20.11.2020 07:00:00 2,0 1,0 9 5 - - WZW 1035,2 7
20.11.2020 06:00:00 2,4 1,5 9 5 14 8 WZW 1035,0 4,0
20.11.2020 05:00:00 2,7 2,2 8 4 14 8 WZW 1035,0 10
20.11.2020 04:00:00 2,9 2,3 11 6 - - WZW 1034,7 10
20.11.2020 03:00:00 3,5 2,5 11 6 14 8 WZW 1034,7 10
20.11.2020 02:00:00 3,7 2,4 5 3 11 6 W 1034,9 10
20.11.2020 01:00:00 4,2 3,1 5 3 - - W 1034,8 10
20.11.2020 00:00:00 4,9 3,9 5 3 14 8 WNW 1034,2 10
19.11.2020 23:00:00 5,2 4,5 5 3 11 6 W 1033,2 9
19.11.2020 22:00:00 6,2 4,7 5 3 - - WNW 1032,9 10
19.11.2020 21:00:00 5,9 4,8 5 3 14 8 WNW 1032,1 10
19.11.2020 20:00:00 6,2 5,1 8 4 11 6 WNW 1030,9 10
19.11.2020 19:00:00 6,4 5,0 5 3 - - NW 1029,7 10
19.11.2020 18:00:00 7,3 5,9 13 7 29 16 NW 1029,4 8

tt = temperatuur
td = dauwpunt
ff = windsnelheid
fx = windstoten
dd = windrichting
ppp = luchtdruk
vv = zicht

Weerstations in de omgeving